[[{"header":{"parameterUnit":"m.s-1","parameterCategory":1,"la1":30.2991,"la2":30.254,"lo1":-89.0895,"lo2":-89.0444,"dy":0.0017,"dx":0.0017,"nx":28,"ny":28,"refTime":"2024-12-04T09:00:00:Z","depth":0,"parameterNumber":2,"parameterNumberName":"U-component_of_WINDS"},"data":[0,0,0,0,0,0,0,0,0,0,0,0,0,0,0,0,0,0,0,0,0,0,0,0,0,0,0,0,0,0,0,0,0,0,0,0,0,0,0,0,0,0,0,0,0,0,0,0,0,0,0,0,0,0,0,0,0,0,-0.2512,-0.2513,0,-0.2587,-0.2588,-0.2588,-0.2598,-0.2597,-0.2597,-0.2596,-0.2675,-0.2677,-0.268,0,0,0,0,0,0,0,0,0,0,0,0,0,-0.238,-0.2382,-0.2512,-0.2513,-0.2514,-0.2587,-0.2588,-0.2589,-0.2598,-0.2597,-0.2597,-0.2596,-0.2674,-0.2677,-0.268,0,0,0,0,0,0,0,0,0,0,0,0,0,-0.2444,-0.2383,-0.2512,-0.2528,-0.253,-0.2586,-0.2588,-0.2589,-0.2599,-0.2597,-0.2596,-0.2595,-0.2673,-0.2677,-0.2681,-0.2728,0,0,-0.2693,-0.2695,0,0,0,0,0,0,0,0,-0.244,-0.2449,-0.2524,-0.2527,-0.2529,-0.2582,-0.257,-0.2635,-0.2599,-0.2572,-0.2596,-0.2595,-0.2645,-0.2651,-0.2668,-0.2731,-0.2735,-0.2694,-0.2696,-0.2698,-0.2699,0,0,0,0,0,0,0,-0.2436,-0.2446,-0.2542,-0.2525,-0.2528,-0.2531,-0.2539,-0.2582,-0.2614,-0.2575,-0.2576,-0.2584,-0.2646,-0.2664,-0.2669,-0.2736,-0.2694,-0.2697,-0.27,-0.2701,-0.2841,-0.2843,0,0,0,0,0,0,-0.2428,-0.2442,-0.2539,-0.2544,-0.2481,-0.2534,-0.2543,-0.2566,-0.2613,-0.2619,-0.2585,-0.2584,-0.2657,-0.2665,-0.2672,-0.2731,-0.2698,-0.2702,-0.2704,-0.284,-0.2842,-0.2843,0,0,0,0,0,0,-0.2425,-0.2437,-0.2536,-0.2493,-0.2506,-0.2538,-0.2563,-0.2568,-0.2586,-0.2621,-0.2627,-0.2597,-0.2656,-0.2666,-0.2714,-0.2733,-0.2704,-0.2707,-0.2839,-0.2841,-0.2842,-0.2847,0,0,0,0,0,0,-0.2422,-0.2436,-0.2454,-0.2494,-0.2508,-0.2576,-0.2565,-0.257,-0.2593,-0.2593,-0.2634,-0.264,-0.2656,-0.2707,-0.2718,-0.2739,-0.2711,-0.2837,-0.284,-0.2842,-0.2845,-0.2849,-0.2852,0,0,0,0,0,-0.2417,-0.2453,-0.2455,-0.2466,-0.2531,-0.2577,-0.2586,-0.2603,-0.2594,-0.2613,-0.2635,-0.2639,-0.2729,-0.2712,-0.2724,-0.2746,-0.2836,-0.2839,-0.2842,-0.2844,-0.2848,-0.2852,0,0,0,0,0,0,-0.2416,-0.2458,-0.2461,-0.2511,-0.254,-0.2579,-0.2603,-0.2607,-0.2641,-0.2639,-0.266,-0.267,-0.2716,-0.2736,-0.2716,-0.2794,-0.2782,-0.2787,-0.278,-0.2784,-0.2787,-0.2782,-0.2714,0,0,0,0,0,-0.2421,-0.2454,-0.249,-0.253,-0.2545,-0.2571,-0.2592,-0.2602,-0.2634,-0.2647,-0.2673,-0.2704,-0.2739,-0.2763,-0.2797,-0.2848,-0.2857,-0.2869,-0.2872,-0.2874,-0.2879,-0.2908,-0.2913,-0.2852,-0.2852,-0.2852,0,0,-0.2433,-0.246,-0.248,-0.2531,-0.2555,-0.2589,-0.2582,-0.2618,-0.2644,-0.2653,-0.2699,-0.2719,-0.2755,-0.2804,-0.2827,-0.2822,-0.2898,-0.2878,-0.288,-0.2883,-0.2911,-0.2917,-0.2922,-0.2854,-0.2854,-0.2853,0,0,-0.2472,-0.2496,-0.2532,-0.2556,-0.2592,-0.2609,-0.2618,-0.2656,-0.2669,-0.2715,-0.2722,-0.2753,-0.2814,-0.2839,-0.286,-0.2907,-0.2911,-0.2917,-0.2935,-0.2963,-0.2967,-0.2972,-0.2989,-0.2995,-0.2922,-0.2922,-0.2922,0,-0.2483,-0.2534,-0.2551,-0.2587,-0.2609,-0.2617,-0.2654,-0.2676,-0.2722,-0.2738,-0.2731,-0.2806,-0.2831,-0.2886,-0.2898,-0.2914,-0.2925,-0.2914,-0.2965,-0.297,-0.2974,-0.2991,-0.2997,-0.2922,-0.2922,-0.2922,-0.2922,0,-0.2546,-0.2581,-0.2606,-0.2649,-0.2674,-0.271,-0.2732,-0.2755,-0.2763,-0.2781,-0.2828,-0.2858,-0.2898,-0.2912,-0.2921,-0.2968,-0.2964,-0.2961,-0.2949,-0.298,-0.2996,-0.3003,-0.2923,-0.2923,-0.2923,-0.2923,0,0,-0.2589,-0.2639,-0.2648,-0.2667,-0.2707,-0.2735,-0.2771,-0.281,-0.283,-0.286,-0.2892,-0.2942,-0.2939,-0.2963,-0.2974,-0.2998,-0.3034,-0.2992,-0.2993,-0.3,-0.3088,-0.3091,-0.3098,-0.3036,-0.3037,-0.3038,-0.3086,0,-0.2633,-0.2698,-0.2713,-0.2769,-0.2802,-0.2809,-0.2841,-0.2869,-0.2886,-0.2917,-0.2936,-0.2972,-0.2965,-0.2979,-0.3003,-0.3024,-0.3052,-0.3021,-0.3067,-0.3068,-0.3059,-0.3107,-0.311,-0.3153,-0.3092,-0.3093,-0.3094,0,-0.2694,-0.2726,-0.2785,-0.2819,-0.2834,-0.2862,-0.2899,-0.2928,-0.2959,-0.297,-0.2995,-0.3004,-0.3042,-0.3028,-0.3081,-0.306,-0.3079,-0.3092,-0.3094,-0.3101,-0.3084,-0.3115,-0.3167,-0.3174,-0.3104,-0.3103,-0.3102,0,-0.2721,-0.2777,-0.282,-0.2836,-0.2877,-0.2897,-0.2915,-0.2946,-0.2968,-0.3,-0.3014,-0.305,-0.307,-0.3098,-0.3116,-0.3103,-0.3168,-0.3155,-0.3179,-0.3178,-0.3194,-0.3193,-0.3251,-0.3204,-0.3204,-0.3204,-0.3204,0,-0.277,-0.2806,-0.2832,-0.2859,-0.2899,-0.2916,-0.2955,-0.2974,-0.3,-0.3031,-0.3039,-0.3067,-0.3089,-0.312,-0.3134,-0.3177,-0.3185,-0.3196,-0.3199,-0.3196,-0.3195,-0.321,-0.3208,-0.3205,-0.3205,-0.3205,-0.3204,0,-0.2807,-0.2826,-0.2873,-0.2907,-0.2917,-0.2945,-0.2975,-0.3001,-0.3017,-0.3055,-0.3065,-0.3092,-0.3129,-0.3149,-0.3196,-0.3205,-0.3253,-0.3255,-0.3242,-0.3244,-0.3267,-0.3265,-0.3338,-0.3349,-0.3294,-0.3294,-0.3295,0,-0.2838,-0.2865,-0.2902,-0.2923,-0.2941,-0.2974,-0.2996,-0.3013,-0.3036,-0.3073,-0.3095,-0.3132,-0.3163,-0.3222,-0.3246,-0.3281,-0.3284,-0.3307,-0.329,-0.3285,-0.3286,-0.3284,-0.3287,-0.3311,-0.3311,-0.3312,-0.3312,0,-0.289,-0.2898,-0.2929,-0.2964,-0.299,-0.3018,-0.3046,-0.3062,-0.3083,-0.3109,-0.3146,-0.317,-0.3217,-0.3254,-0.3292,-0.3311,-0.3316,-0.3317,-0.3325,-0.3322,-0.3314,-0.332,-0.3252,-0.3316,-0.3316,-0.3315,-0.3315,-0.3315,-0.2926,-0.2951,-0.2981,-0.3015,-0.3037,-0.3063,-0.3089,-0.3108,-0.3139,-0.3179,-0.3186,-0.3226,-0.3256,-0.3307,-0.3327,-0.3358,-0.3354,-0.3365,-0.3368,-0.3371,-0.3372,-0.3308,-0.3365,-0.3365,-0.3365,-0.3365,-0.3365,0,-0.298,-0.2999,-0.303,-0.3069,-0.3096,-0.3096,-0.3126,-0.3149,-0.3184,-0.3211,-0.3241,-0.3284,-0.332,-0.3345,-0.3382,-0.3402,-0.3405,-0.3411,-0.3411,-0.3415,-0.3373,-0.3363,-0.3408,-0.3408,-0.3408,-0.3408,-0.3408,-0.3408,-0.3012,-0.3054,-0.3065,-0.3118,-0.3137,-0.3175,-0.3193,-0.3216,-0.3238,-0.3285,-0.3315,-0.3331,-0.3357,-0.3395,-0.3428,-0.3435,-0.3448,-0.3454,-0.3461,-0.3422,-0.3418,-0.3414,-0.3404,-0.3457,-0.3457,-0.35,-0.3501,-0.3501]},{"header":{"parameterUnit":"m.s-1","parameterCategory":1,"la1":30.2991,"la2":30.254,"lo1":-89.0895,"lo2":-89.0444,"dy":0.0017,"dx":0.0017,"nx":28,"ny":28,"refTime":"2024-12-04T09:00:00:Z","depth":0,"parameterNumber":3,"parameterNumberName":"V-component_of_WINDS"},"data":[0,0,0,0,0,0,0,0,0,0,0,0,0,0,0,0,0,0,0,0,0,0,0,0,0,0,0,0,0,0,0,0,0,0,0,0,0,0,0,0,0,0,0,0,0,0,0,0,0,0,0,0,0,0,0,0,0,0,-6.3906,-6.3907,0,-6.4023,-6.4024,-6.4026,-6.3947,-6.3943,-6.3939,-6.3936,-6.405,-6.4057,-6.4063,0,0,0,0,0,0,0,0,0,0,0,0,0,-6.3609,-6.3615,-6.3906,-6.3907,-6.3909,-6.4023,-6.4025,-6.4026,-6.3947,-6.3943,-6.3938,-6.3934,-6.4048,-6.4056,-6.4063,0,0,0,0,0,0,0,0,0,0,0,0,0,-6.3733,-6.3617,-6.3906,-6.3883,-6.3883,-6.4023,-6.4025,-6.4027,-6.3948,-6.3943,-6.3937,-6.3932,-6.4046,-6.4055,-6.4064,-6.4231,0,0,-6.4094,-6.4098,0,0,0,0,0,0,0,0,-6.3726,-6.3744,-6.3885,-6.3885,-6.3885,-6.3965,-6.3962,-6.4095,-6.3949,-6.3923,-6.3936,-6.393,-6.4026,-6.4037,-6.407,-6.4237,-6.4241,-6.4095,-6.41,-6.4104,-6.4107,0,0,0,0,0,0,0,-6.3718,-6.3739,-6.3952,-6.3887,-6.3887,-6.3866,-6.3878,-6.3987,-6.4003,-6.3925,-6.3919,-6.3935,-6.4025,-6.4061,-6.4072,-6.4243,-6.4094,-6.4103,-6.4109,-6.4112,-6.4553,-6.4558,0,0,0,0,0,0,-6.3712,-6.3732,-6.3948,-6.3956,-6.3791,-6.3876,-6.3889,-6.3944,-6.4002,-6.4005,-6.3939,-6.3931,-6.4048,-6.4061,-6.4076,-6.4276,-6.4104,-6.4113,-6.4119,-6.4547,-6.4554,-6.456,0,0,0,0,0,0,-6.3706,-6.3732,-6.3944,-6.3842,-6.3868,-6.3887,-6.395,-6.395,-6.3986,-6.4013,-6.4014,-6.3974,-6.4044,-6.4063,-6.4194,-6.4279,-6.4118,-6.4126,-6.454,-6.4549,-6.4557,-6.4677,0,0,0,0,0,0,-6.3697,-6.373,-6.3795,-6.3845,-6.3874,-6.4062,-6.3955,-6.3956,-6.4004,-6.3994,-6.4046,-6.4049,-6.4041,-6.418,-6.4203,-6.4289,-6.4134,-6.4532,-6.4544,-6.4554,-6.4666,-6.4689,-6.4709,0,0,0,0,0,-6.3687,-6.3823,-6.3799,-6.3825,-6.3955,-6.4067,-6.4083,-6.4073,-6.4011,-6.4076,-6.4092,-6.4048,-6.4266,-6.4194,-6.422,-6.431,-6.4527,-6.4541,-6.4554,-6.4656,-6.4685,-6.4709,0,0,0,0,0,0,-6.378,-6.3829,-6.3803,-6.3958,-6.4009,-6.4053,-6.4134,-6.4103,-6.4171,-6.4158,-6.414,-6.4153,-6.4291,-6.4313,-6.4232,-6.4475,-6.4386,-6.4405,-6.4456,-6.4483,-6.4504,-6.4496,-6.4142,0,0,0,0,0,-6.3819,-6.3907,-6.3944,-6.4078,-6.4105,-6.4116,-6.4163,-6.4151,-6.4202,-6.4223,-6.4249,-6.4299,-6.4379,-6.4432,-6.4506,-6.4668,-6.4679,-6.4743,-6.4764,-6.4782,-6.4799,-6.4887,-6.4917,-6.4604,-6.4604,-6.4604,0,0,-6.39,-6.3937,-6.3994,-6.4098,-6.4135,-6.4226,-6.4134,-6.4233,-6.43,-6.4237,-6.4364,-6.4385,-6.4439,-6.4587,-6.4653,-6.461,-6.4888,-6.4799,-6.4813,-6.4821,-6.4904,-6.4934,-6.496,-6.4613,-6.4612,-6.461,0,0,-6.4094,-6.4131,-6.4247,-6.4288,-6.4347,-6.4354,-6.4382,-6.4431,-6.4443,-6.457,-6.4526,-6.4603,-6.4741,-6.4782,-6.4821,-6.5031,-6.4993,-6.5056,-6.517,-6.5256,-6.528,-6.5302,-6.5378,-6.5406,-6.5072,-6.5073,-6.5073,0,-6.4186,-6.4323,-6.431,-6.4414,-6.4461,-6.4411,-6.4528,-6.4567,-6.4647,-6.468,-6.463,-6.4803,-6.4836,-6.4993,-6.5045,-6.5078,-6.5109,-6.505,-6.5278,-6.53,-6.532,-6.5392,-6.5421,-6.508,-6.5079,-6.5078,-6.5078,0,-6.4434,-6.4529,-6.4616,-6.4698,-6.4754,-6.4864,-6.4867,-6.4925,-6.4908,-6.4919,-6.5049,-6.5087,-6.5169,-6.5205,-6.5188,-6.536,-6.5332,-6.5281,-6.5192,-6.5357,-6.5425,-6.5453,-6.5091,-6.5088,-6.5086,-6.5084,0,0,-6.469,-6.4765,-6.4797,-6.4834,-6.4896,-6.4969,-6.5076,-6.5158,-6.5209,-6.5265,-6.5355,-6.5473,-6.5427,-6.5471,-6.5458,-6.5533,-6.5699,-6.5473,-6.5474,-6.5515,-6.5892,-6.5932,-6.5964,-6.5673,-6.5679,-6.5683,-6.5888,0,-6.4889,-6.5079,-6.5071,-6.5248,-6.5336,-6.5289,-6.5382,-6.543,-6.5443,-6.5518,-6.5531,-6.5616,-6.5548,-6.5574,-6.5647,-6.5664,-6.5775,-6.5649,-6.5756,-6.576,-6.5746,-6.5999,-6.6041,-6.6233,-6.5914,-6.5919,-6.5922,0,-6.5146,-6.5215,-6.5401,-6.5452,-6.5488,-6.5573,-6.5648,-6.5721,-6.5773,-6.5777,-6.5828,-6.5803,-6.591,-6.5818,-6.5965,-6.5879,-6.5922,-6.5937,-6.5944,-6.5955,-6.5852,-6.6018,-6.6294,-6.6323,-6.5963,-6.596,-6.5957,0,-6.5316,-6.5455,-6.5584,-6.5617,-6.5679,-6.5739,-6.5767,-6.5815,-6.5865,-6.593,-6.5963,-6.6039,-6.6081,-6.6139,-6.6135,-6.6068,-6.6285,-6.6192,-6.6291,-6.6291,-6.634,-6.6337,-6.6628,-6.6365,-6.6365,-6.6364,-6.6364,0,-6.554,-6.5656,-6.5662,-6.5742,-6.587,-6.586,-6.5986,-6.6008,-6.6051,-6.6133,-6.6095,-6.6173,-6.6162,-6.624,-6.6236,-6.636,-6.6378,-6.6384,-6.6382,-6.6389,-6.6388,-6.6417,-6.6404,-6.6372,-6.637,-6.6369,-6.6368,0,-6.5752,-6.5761,-6.59,-6.5947,-6.5962,-6.6055,-6.6095,-6.617,-6.618,-6.6284,-6.6308,-6.6324,-6.6413,-6.6415,-6.6516,-6.6514,-6.6665,-6.6647,-6.6648,-6.6645,-6.6745,-6.6736,-6.7066,-6.7109,-6.6817,-6.682,-6.6822,0,-6.5895,-6.5984,-6.6042,-6.6096,-6.6128,-6.6215,-6.6267,-6.6259,-6.6314,-6.6381,-6.6449,-6.6535,-6.6604,-6.6748,-6.6768,-6.6845,-6.683,-6.694,-6.6841,-6.6845,-6.6833,-6.6828,-6.6838,-6.6959,-6.6963,-6.6965,-6.6967,0,-6.6148,-6.6148,-6.6226,-6.6306,-6.637,-6.6432,-6.6489,-6.6534,-6.6533,-6.6597,-6.6689,-6.6743,-6.6848,-6.6934,-6.7009,-6.7036,-6.7002,-6.6998,-6.7026,-6.7034,-6.7032,-6.7036,-6.6702,-6.6991,-6.6989,-6.6987,-6.6986,-6.6985,-6.6331,-6.6408,-6.6462,-6.655,-6.6593,-6.6647,-6.6721,-6.6741,-6.6819,-6.6906,-6.6895,-6.6998,-6.7048,-6.7146,-6.718,-6.7259,-6.722,-6.7259,-6.727,-6.728,-6.7292,-6.7018,-6.7272,-6.7271,-6.7271,-6.727,-6.727,0,-6.6583,-6.6616,-6.6697,-6.678,-6.6849,-6.6813,-6.6874,-6.6934,-6.7026,-6.7076,-6.7146,-6.7252,-6.7336,-6.7362,-6.7443,-6.7501,-6.7488,-6.7523,-6.7519,-6.7526,-6.7321,-6.729,-6.7532,-6.7532,-6.7532,-6.7532,-6.7532,-6.7532,-6.6723,-6.6853,-6.6859,-6.7009,-6.704,-6.7143,-6.7181,-6.7231,-6.7272,-6.7393,-6.7464,-6.7481,-6.7521,-6.7605,-6.768,-6.7685,-6.7717,-6.7759,-6.7758,-6.7566,-6.754,-6.7515,-6.7486,-6.7766,-6.7766,-6.7957,-6.7958,-6.796]}]]